User: anonymous   Login
Location: Wayah Bald
(35.1806°N, 83.5603°W)
Time: 01:49:55
(UTC-04:00)
Language:

Meteor 1-27 Rocket - Orbit

View from above orbital plane
View from above orbital plane
View from above satellite
View from above satellite

Ground track
Ground track

The orbit data is extracted from the following two-line orbital elements,

1  9904U 77024B   15245.92924625 -.00000177 +00000-0 -11234-3 0  9999
2  9904 081.2615 041.0462 0054800 009.9575 350.2666 14.06799611970723
Epoch (UTC): 02 September 2015 22:18:06
Eccentricity: 0.0054800
inclination: 81.2615°
perigee height: 830 km
apogee height: 910 km
right ascension of ascending node: 41.0462°
argument of perigee: 9.9575°
revolutions per day: 14.06799611
mean anomaly at epoch: 350.2666°
orbit number at epoch: 97072

The dashed part of the orbit path shows where the satellite is in the earth's shadow,  

DLR